Location: Chequamegon National Forest
(46.1070°N, 90.8420°W)
Time: 03:09:44
(UTC-05:00)

Daily predictions for brighter satellites

Satellite Brightness Start Highest point End
(mag) Time Altitude Azimuth Time Altitude Azimuth Time Altitude Azimuth
USA 215 4.4 00:03:27 10° NE 00:09:21 37° N 00:15:14 10° WNW
Cosmos 2227 Rocket 4.5 00:07:06 10° N 00:09:15 19° N 00:09:15 19° N
USA 215 4.5 01:45:33 10° ENE 01:51:25 37° N 01:57:17 10° NW
ATLAS 3B R/B 3.9 01:58:26 40° N 01:58:26 40° N 02:03:17 10° NNE
CZ-4C R/B 4.4 02:11:16 21° NNW 02:11:26 21° NNW 02:16:14 10° NNE
Cosmos 1980 Rocket 4.4 02:19:14 20° NE 02:19:14 20° NE 02:21:11 10° NE
Cosmos 2263 Rocket 4.3 02:25:50 10° N 02:30:05 22° NE 02:31:06 21° ENE
NOSS 3-2 (C) 4.2 03:11:31 48° N 03:11:31 48° N 03:16:52 10° NE
SL-16 R/B 3.2 03:16:19 50° N 03:16:19 50° N 03:20:52 10° NNW
Cosmos 2322 Rocket 3.2 03:28:06 41° E 03:28:06 41° E 03:32:28 10° NE
Cosmos 1709 Rocket 4.3 03:21:41 10° N 03:27:32 62° ENE 03:27:32 62° ENE
CENTAUR R/B 2.8 03:30:07 66° ENE 03:30:07 66° ENE 03:36:12 10° NE
ADEOS Rocket 3.5 03:24:30 10° NNE 03:29:18 47° ENE 03:29:18 47° ENE
SL-16 R/B 3.1 03:31:51 44° E 03:31:51 44° E 03:36:29 10° NE
USA 215 3.5 03:27:19 10° ESE 03:33:47 64° NNE 03:39:32 14° NW
COSMOS 2455 4.3 03:34:48 26° NNW 03:34:48 26° NNW 03:39:16 10° NNE
Cosmos 1697 Rocket 4.0 03:43:37 32° NNW 03:43:37 32° NNW 03:47:27 10° NNE
ARIANE 5 R/B 3.3 03:40:30 10° NNE 03:44:11 48° NNE 03:44:11 48° NNE
CZ-2D R/B 2.5 03:48:46 10° NNE 03:53:19 61° N 03:53:19 61° N
Resurs 1-4 Rocket 2.6 03:53:32 10° N 03:57:39 54° N 03:57:39 54° N
Cosmos 2360 Rocket 3.5 03:57:54 29° SE 03:59:19 33° ESE 04:04:18 10° NE
Cosmos 1980 Rocket 3.1 04:01:00 39° NNW 04:01:00 39° NNW 04:05:27 10° NNE
Cosmos 1812 4.5 04:04:57 31° ENE 04:04:57 31° ENE 04:07:44 10° NNE
IRS-1D 4.3 04:01:49 10° N 04:05:17 42° NNW 04:05:17 42° NNW
Okean O Rocket 3.7 04:04:17 10° NE 04:07:55 24° E 04:09:49 18° SE
Cosmos 2263 Rocket 2.9 04:09:04 10° NNW 04:12:41 41° NW 04:12:41 41° NW
Cosmos 2184 Rocket 4.4 04:08:55 10° N 04:15:05 61° ENE 04:21:15 10° SSE
ATLAS 5 CENTAUR R/B 4.3 04:15:10 10° NNW 04:19:55 26° NNE 04:25:02 10° E
Cosmos 1777 Rocket 4.2 04:14:49 10° NNW 04:20:07 69° ENE 04:25:24 10° SSE
UNKNOWN OBJECT B 4.5 04:16:45 10° N 04:18:31 27° N 04:18:31 27° N
ADEOS II 3.5 04:21:32 10° NNE 04:26:19 34° E 04:30:52 11° SSE
Cosmos 1455 Rocket 3.7 04:25:30 10° N 04:29:50 56° ENE 04:32:07 26° SSE
MOS 1 Rocket 3.5 04:27:28 10° NNE 04:32:16 66° E 04:33:13 51° SSE
Cosmos 2322 4.3 04:29:55 32° SSE 04:32:17 52° ESE 04:37:50 10° NE
Cosmos 1975 Rocket 3.4 04:38:18 53° NNW 04:38:18 53° NNW 04:41:52 10° N
EO 1 Del DPAF 4.3 04:34:09 10° SE 04:37:50 46° ENE 04:41:33 10° N
Okean 1 3.9 04:40:04 46° SE 04:40:56 57° E 04:44:57 10° NNE
Lacrosse 4 Rocket 1.5 04:44:54 10° NNW 04:49:05 75° ENE 04:53:20 10° SE
Cosmos 1975 2.8 04:45:06 10° N 04:49:12 80° E 04:50:38 39° SSE
Cosmos 2315 Rocket 4.5 04:54:52 37° W 04:55:43 38° WNW 05:01:31 10° N
Cosmos 1500 3.0 04:52:39 10° N 04:56:31 83° W 04:57:02 65° S
Cosmos 1536 Rocket 3.9 04:54:41 23° S 04:57:20 66° E 05:01:48 10° NNE
Tiangong 2 2.6 04:59:14 28° SE 04:59:14 28° SE 05:01:05 10° ESE
SL-16 R/B 4.2 05:01:25 15° WNW 05:01:25 15° WNW 05:03:13 10° NW
CZ-4B R/B 3.6 04:53:46 10° NNE 04:59:25 64° ESE 05:04:56 10° S
PSLV R/B 3.5 04:59:26 10° N 05:03:10 75° WNW 05:03:40 62° SW
Cosmos 2327 Rocket 4.4 04:57:11 10° NNW 05:03:25 64° W 05:09:31 10° S
Cosmos 1610 Rocket 4.4 05:03:07 10° NNW 05:09:23 77° W 05:15:40 10° S
Gblst 52 Del rocket 4.2 05:06:19 23° WNW 05:09:56 75° SSW 05:16:13 10° SE
PSLV R/B 3.7 05:06:51 10° NNE 05:11:11 74° ESE 05:14:44 15° S
Cosmos 2322 Rocket 3.1 05:09:55 28° W 05:11:20 32° NW 05:16:22 10° NNE
ADEOS Rocket 3.8 05:10:39 10° N 05:15:13 26° WNW 05:16:16 24° WNW
SL-16 R/B 3.1 05:13:43 27° W 05:15:21 32° NW 05:20:24 10° N
Cosmos 2237 4.3 05:11:23 18° SSW 05:15:44 77° ESE 05:21:30 10° NNE
Nadezhda 1 Rocket 3.8 05:10:50 15° SSW 05:16:03 74° W 05:22:08 10° N
USA 215 3.4 05:10:39 10° SSE 05:16:56 48° SW 05:23:16 10° WNW
COSMOS 2428 3.0 05:14:19 12° SSW 05:19:34 65° ESE 05:25:13 10° NNE
ERS-2 3.5 05:16:18 10° NNE 05:19:49 40° E 05:23:18 10° S
CENTAUR R/B 3.7 05:17:17 21° WNW 05:20:39 33° NNW 05:27:06 10° NNE
ISS -1.3 05:24:19 11° S 05:24:19 11° S 05:24:33 10° S
CZ-2C R/B 3.6 05:18:51 10° S 05:23:24 66° WSW 05:27:56 10° NNW
ARIANE 5 R/B 4.3 05:21:13 10° NNW 05:24:06 15° WNW 05:24:32 15° WNW
Thor Agena Rocket 4.4 05:20:07 10° SE 05:24:59 50° ENE 05:29:52 10° N
Cosmos 2074 Rocket 4.4 05:20:14 10° NNW 05:26:00 40° W 05:31:42 10° SSW
Cosmos 2341 Rocket 4.1 05:20:05 10° N 05:26:23 84° E 05:32:37 10° S
Cosmos 2219 Rocket 3.3 05:21:17 10° S 05:26:30 43° ESE 05:31:46 10° NE
SL-8 R/B 3.8 05:27:37 21° WNW 05:30:45 71° N 05:35:31 10° E
Meteor 1-19 Rocket 4.4 05:26:24 10° S 05:32:00 76° E 05:37:45 10° NNE
MTI 4.3 05:31:55 33° SW 05:32:39 38° W 05:35:47 10° NNW
Cosmos 1844 Rocket 2.6 05:27:20 10° NNW 05:32:57 80° WSW 05:38:30 10° SSE
IRS-1C Rocket 4.1 05:27:52 10° N 05:33:05 64° WNW 05:38:01 11° SSW
CZ-2D R/B 3.9 05:30:36 10° NNW 05:33:31 15° NW 05:34:38 14° WNW
Cosmos 1570 Rocket 3.9 05:31:16 13° SSW 05:35:54 79° WNW 05:41:10 10° NNE
CZ-4B R/B 3.2 05:33:50 10° N 05:37:12 37° WNW 05:38:35 26° WSW
Resurs 1-4 Rocket 4.0 05:35:37 10° NNW 05:37:45 12° NW 05:38:45 12° WNW
Cosmos 1898 Rocket 3.7 05:34:37 10° NNW 05:39:51 73° ENE 05:45:01 10° SSE
Cosmos 1812 4.2 05:40:07 19° WNW 05:40:12 19° WNW 05:43:02 10° NNW
Cosmos 2360 Rocket 2.7 05:39:41 20° WSW 05:43:11 43° NW 05:48:33 10° NNE
Cosmos 2278 Rocket 2.9 05:37:36 10° NNW 05:43:13 58° ENE 05:48:47 10° SE
Okean O Rocket 2.2 05:40:17 10° N 05:44:23 37° WNW 05:47:18 17° SW
Cosmos 1980 Rocket 4.4 05:44:33 10° NW 05:45:43 11° NNW 05:46:54 10° NNW
Meteor 2-4 Rocket 3.8 05:44:56 10° S 05:50:31 78° E 05:56:00 10° NNE
Cosmos 2237 Rocket 3.6 05:46:10 10° S 05:51:26 41° ESE 05:56:45 10° NE
CZ-4C R/B 4.4 05:47:11 10° NNW 05:53:15 33° NNE 05:59:59 10° E
Cosmos 405 Rocket 3.9 05:49:32 10° S 05:53:27 47° E 05:57:20 10° NNE
Cosmos 1340 3.9 05:52:57 19° WSW 05:54:27 24° WNW 05:57:36 10° NNW
Okean-O 2.7 05:50:07 10° NNE 05:54:36 84° ESE 05:59:01 10° SSW
COSMO-SKYMED 1 3.3 05:53:33 10° SSE 05:57:48 59° ENE 06:02:06 10° N
Cosmos 1666 2.8 05:55:12 10° NNW 05:58:59 55° W 06:02:47 10° S
Cosmos 1743 3.4 05:57:48 10° NNW 06:01:16 32° W 06:04:42 10° SSW
Meteor 1-31 Rocket 2.6 05:58:00 10° N 06:01:50 73° WNW 06:05:36 10° SSW
Cosmos 1726 Rocket 4.2 05:58:11 10° N 06:02:37 62° E 06:07:01 10° SSE
Cosmos 2285 Rocket 4.3 05:56:49 10° SSW 06:03:14 75° ESE 06:09:40 10° NNE
Cosmos 858 Rocket 4.5 05:58:52 10° NNW 06:04:11 82° WSW 06:09:26 10° SSE
ATLAS 5 CENTAUR R/B 2.5 05:59:26 10° NW 06:05:24 86° NE 06:11:53 10° SE
BREEZE M DEB (TANK) 3.3 05:54:47 10° WNW 06:06:02 71° SSW 06:09:35 10° SE
ADEOS II 2.7 06:01:17 10° N 06:06:02 35° WNW 06:10:46 10° SW
DELTA 2 R/B (1) 4.4 06:01:20 12° WSW 06:06:04 40° S 06:11:13 10° ESE
Cosmos 2333 Rocket 2.5 06:02:04 10° SSW 06:07:44 72° ESE 06:13:29 10° NNE
Cosmos 1025 Rocket 3.0 06:05:38 10° SSW 06:10:00 79° W 06:14:26 10° N
Cosmos 1937 Rocket 3.5 06:06:54 10° NNW 06:12:16 84° WSW 06:17:34 10° SSE
Cosmos 1892 Rocket 4.3 06:08:16 10° S 06:12:31 57° E 06:16:49 10° NNE
NOSS 0 Rocket 4.3 06:08:33 10° SSW 06:14:41 72° ESE 06:20:51 10° NNE
Cosmos 1959 Rocket 4.4 06:09:20 10° N 06:15:28 81° W 06:21:35 10° S
NOAA 6 4.1 06:10:25 10° NNE 06:15:35 84° ESE 06:20:42 10° SSW
Cosmos 1763 Rocket 4.4 06:11:26 10° S 06:16:19 50° ESE 06:21:17 10° NNE
Cosmos 2298 Rocket 4.1 06:16:41 10° NNW 06:21:55 57° WSW 06:27:07 10° S
Cosmos 2366 rocket 4.0 06:20:22 10° NNW 06:26:43 76° W 06:33:03 10° S
Lacrosse 4 Rocket 3.2 06:25:30 10° W 06:27:13 12° WSW 06:28:56 10° SW
Cosmos 1238 Rocket 3.9 06:26:11 10° WSW 06:28:04 15° WNW 06:29:57 10° NNW
Cosmos 841 Rocket 4.4 06:23:25 10° S 06:28:25 53° ESE 06:33:25 10° NNE
